Terminal Aerodrome Forecast
Issued by NWS Binghamton, NY

Home | Current Version | Previous Version | Text Only | Print | Product List | Glossary On
Versions: 1 2 3 4 5 6 7 8 9 10 11 12 13 14 15 16 17 18 19 20 21 22 23 24 25 26 27
000
FTUS41 KBGM 261700
TAFBGM
TAF
KBGM 261730Z 2618/2718 08007KT 1SM -SN OVC020
     FM270300 02008KT 2SM -SN OVC015
     FM271100 35009KT 3SM -SN OVC015
     FM271500 33014KT 4SM BR OVC015=

USA.gov is the U.S. government's official web portal to all federal, state and local government web resources and services.